sat.trackr.live / text

‹ back to catalog

STARLINK-35400

NORAD 66333 · 2025-253Q

PAYLOAD ACTIVE UNKNOWN

§ Identity

Operator
Country
US
Launch date
2025-11-06
Launch site
AFETR
Launch vehicle
Mass (kg)
RCS (m²)

Purposes: comms

External: N2YO · Heavens-Above · Gunter

§ Orbital elements

Epoch: 2026-05-25T00:34:13.158624Z

Period
94.27 min
Inclination
42.9978°
Eccentricity
0.0001229
Mean motion
15.27590250 rev/d
Perigee alt
482.2 km
Apogee alt
483.9 km
Semi-major
6,861.2 km
B*
3.7892e-4
RAAN
141.8576°
Arg perigee
272.4518°
Mean anomaly
87.6192°
Rev number
3,191

§ Raw data

STARLINK-354001 66333U 25253Q   26145.02376341  .00010183  00000+0  37892-3 0  99962 66333  42.9978 141.8576 0001229 272.4518  87.6192 15.27590250 31910

JSON: /api/v1/satellites/66333 · /tle

For live sub-satellite position, see the globe view (requires WebGL).

§ Visibility from observer

Set your observer location to see the next 7 days of passes ≥ 10°. The values pass through the URL so the page stays shareable.

No JS? Fill the form by hand. The geolocation button needs JavaScript.